DAL039 KLAX-ZSPD

Flight info

Callsign DAL039
Flight time N/A
Altitude 34000
Route SUMMR2 SCTRR DCT PYE J143 ENI DCT FOT DCT BOXER B453 KATCH B757 NULUK R220 IXE Y88 KCC Y28 ISAKY Y592 ONIKU A593 LAMEN/K0924F340 A593 PUD
Aircraft A359/H-SDE2E3GHIJ3J4J5LM1ORWXY/LB1D1

Departure

Time N/A
Airport Los Angeles International Airport (KLAX)

Arrival

Time 2026-05-07 15:29
Airport Shanghai Pudong International Airport (ZSPD)
Time Latitude Longitude Altitude Speed Heading
2026-05-07 15:04 31.38462 122.89481 31268 ft 440 kts 259°
2026-05-07 15:04 31.37784 122.86004 31002 ft 440 kts 260°
2026-05-07 15:04 31.37101 122.82508 30734 ft 440 kts 259°
2026-05-07 15:05 31.36417 122.79002 30469 ft 441 kts 259°
2026-05-07 15:05 31.35743 122.75516 30209 ft 441 kts 260°
2026-05-07 15:05 31.35084 122.72027 29940 ft 442 kts 260°
2026-05-07 15:05 31.34418 122.68501 29677 ft 443 kts 260°
2026-05-07 15:06 31.33755 122.65002 29417 ft 444 kts 260°
2026-05-07 15:06 31.33081 122.61476 29152 ft 444 kts 260°
2026-05-07 15:06 31.32414 122.57993 28898 ft 445 kts 260°
2026-05-07 15:06 31.31736 122.54472 28641 ft 446 kts 259°
2026-05-07 15:07 31.31048 122.50912 28381 ft 445 kts 260°
2026-05-07 15:07 31.30373 122.47425 28123 ft 444 kts 260°
2026-05-07 15:07 31.29698 122.43926 27868 ft 442 kts 260°
2026-05-07 15:07 31.29037 122.40404 27614 ft 441 kts 260°
2026-05-07 15:08 31.28393 122.36942 27360 ft 439 kts 260°
2026-05-07 15:08 31.27743 122.33449 27107 ft 438 kts 260°
2026-05-07 15:08 31.27099 122.30006 26850 ft 437 kts 260°
2026-05-07 15:08 31.26451 122.26551 26595 ft 436 kts 260°
2026-05-07 15:09 31.25797 122.23087 26342 ft 435 kts 260°
2026-05-07 15:09 31.25149 122.19664 26094 ft 434 kts 259°
2026-05-07 15:09 31.24496 122.16226 25844 ft 432 kts 259°
2026-05-07 15:09 31.23843 122.12805 25593 ft 431 kts 259°
2026-05-07 15:10 31.23200 122.09427 25342 ft 430 kts 259°
2026-05-07 15:10 31.22544 122.06000 25090 ft 429 kts 259°
2026-05-07 15:10 31.21892 122.02613 24841 ft 428 kts 259°
2026-05-07 15:10 31.21249 121.99268 24596 ft 426 kts 259°
2026-05-07 15:11 31.20602 121.95914 24348 ft 424 kts 259°
2026-05-07 15:11 31.19953 121.92551 24099 ft 423 kts 259°
2026-05-07 15:11 31.19312 121.89227 23850 ft 421 kts 259°
2026-05-07 15:11 31.18641 121.85905 23608 ft 422 kts 256°
2026-05-07 15:12 31.17571 121.82719 23367 ft 424 kts 247°
2026-05-07 15:12 31.16029 121.79785 23127 ft 427 kts 238°
2026-05-07 15:12 31.14051 121.77183 22888 ft 432 kts 228°
2026-05-07 15:12 31.11674 121.74989 22649 ft 437 kts 219°
2026-05-07 15:13 31.09050 121.73231 22426 ft 440 kts 214°
2026-05-07 15:13 31.06354 121.71551 22190 ft 438 kts 213°
2026-05-07 15:13 31.03666 121.69900 21975 ft 437 kts 213°
2026-05-07 15:13 31.00944 121.68229 21740 ft 437 kts 213°
2026-05-07 15:14 30.98279 121.66590 21508 ft 435 kts 213°
2026-05-07 15:14 30.95605 121.64945 21275 ft 434 kts 213°
2026-05-07 15:14 30.92940 121.63303 21046 ft 431 kts 213°
2026-05-07 15:14 30.90279 121.61664 20816 ft 430 kts 213°
2026-05-07 15:15 30.87651 121.60049 20583 ft 429 kts 213°
2026-05-07 15:15 30.85013 121.58436 20355 ft 427 kts 213°
2026-05-07 15:15 30.82386 121.56829 20120 ft 426 kts 213°
2026-05-07 15:15 30.79780 121.55231 19882 ft 424 kts 213°
2026-05-07 15:16 30.77183 121.53638 19650 ft 422 kts 213°
2026-05-07 15:16 30.74557 121.52138 19351 ft 422 kts 205°
2026-05-07 15:16 30.71615 121.51529 18626 ft 436 kts 184°
2026-05-07 15:16 30.68630 121.52140 17975 ft 445 kts 166°
2026-05-07 15:17 30.65850 121.53758 17354 ft 451 kts 149°
2026-05-07 15:17 30.63523 121.56188 16752 ft 453 kts 138°
2026-05-07 15:17 30.61194 121.58572 16106 ft 443 kts 150°
2026-05-07 15:17 30.58531 121.60259 15502 ft 434 kts 159°
2026-05-07 15:18 30.55899 121.61970 14830 ft 438 kts 143°
2026-05-07 15:18 30.53915 121.64658 14172 ft 441 kts 121°
2026-05-07 15:18 30.52931 121.67996 13534 ft 439 kts 96°
2026-05-07 15:18 30.53076 121.71468 12889 ft 432 kts 73°
2026-05-07 15:19 30.54293 121.74548 12246 ft 421 kts 52°
2026-05-07 15:19 30.56391 121.76827 11600 ft 408 kts 28°
2026-05-07 15:19 30.58986 121.77935 10999 ft 393 kts
2026-05-07 15:19 30.61665 121.78228 10562 ft 382 kts
2026-05-07 15:20 30.64266 121.78541 10158 ft 374 kts
2026-05-07 15:20 30.66829 121.79038 9752 ft 366 kts
2026-05-07 15:20 30.69297 121.79669 9307 ft 359 kts 12°
2026-05-07 15:20 30.71691 121.80375 8871 ft 353 kts 13°
2026-05-07 15:21 30.74028 121.81113 8389 ft 349 kts 13°
2026-05-07 15:21 30.76352 121.81873 7881 ft 338 kts 14°
2026-05-07 15:21 30.78576 121.82610 7376 ft 324 kts 14°
2026-05-07 15:21 30.80693 121.83315 6893 ft 313 kts 14°
2026-05-07 15:22 30.82745 121.84001 6396 ft 304 kts 13°
2026-05-07 15:22 30.84816 121.84258 5887 ft 294 kts 356°
2026-05-07 15:22 30.86829 121.84259 5381 ft 289 kts
2026-05-07 15:22 30.88644 121.85155 4876 ft 287 kts 36°
2026-05-07 15:23 30.89924 121.86903 4374 ft 288 kts 59°
2026-05-07 15:23 30.90831 121.88973 3907 ft 281 kts 56°
2026-05-07 15:23 30.91958 121.90733 3632 ft 263 kts 36°
2026-05-07 15:23 30.93521 121.91475 3675 ft 234 kts 359°
2026-05-07 15:24 30.94995 121.90970 3721 ft 215 kts 331°
2026-05-07 15:24 30.96193 121.90012 3717 ft 201 kts 326°
2026-05-07 15:24 30.97295 121.89089 3734 ft 183 kts 331°
2026-05-07 15:24 30.98349 121.88430 3768 ft 163 kts 338°
2026-05-07 15:25 30.99383 121.87942 3760 ft 158 kts 342°
2026-05-07 15:25 31.00425 121.87515 3749 ft 158 kts 343°
2026-05-07 15:25 31.01484 121.87117 3460 ft 163 kts 344°
2026-05-07 15:25 31.02579 121.86712 2787 ft 170 kts 345°
2026-05-07 15:26 31.03692 121.86251 2094 ft 175 kts 344°
2026-05-07 15:26 31.04821 121.85763 1620 ft 165 kts 349°
2026-05-07 15:26 31.05857 121.85423 1423 ft 145 kts 350°
2026-05-07 15:26 31.06774 121.85107 1252 ft 129 kts 350°
2026-05-07 15:27 31.07582 121.84809 1084 ft 120 kts 349°
2026-05-07 15:27 31.08387 121.84507 936 ft 121 kts 348°
2026-05-07 15:27 31.09187 121.84201 787 ft 121 kts 348°
2026-05-07 15:27 31.09994 121.83895 624 ft 122 kts 347°
2026-05-07 15:28 31.10811 121.83586 462 ft 122 kts 347°
2026-05-07 15:28 31.11622 121.83279 300 ft 123 kts 347°
2026-05-07 15:28 31.12441 121.82969 132 ft 123 kts 346°
2026-05-07 15:28 31.13255 121.82661 30 ft 115 kts 343°
2026-05-07 15:29 31.13806 121.82467 27 ft 49 kts 342°
2026-05-07 15:29 31.14093 121.82352 26 ft 51 kts 343°
2026-05-07 15:29 31.14331 121.82227 26 ft 35 kts 322°
2026-05-07 15:29 31.14436 121.82109 26 ft 14 kts 315°
2026-05-07 15:30 31.14512 121.82020 26 ft 16 kts 314°
2026-05-07 15:30 31.14594 121.81945 26 ft 14 kts 330°
2026-05-07 15:30 31.14681 121.81903 25 ft 22 kts 342°
2026-05-07 15:30 31.14890 121.81840 23 ft 27 kts 347°
2026-05-07 15:31 31.14971 121.81702 23 ft 23 kts 253°
2026-05-07 15:31 31.14921 121.81522 27 ft 23 kts 253°
2026-05-07 15:31 31.14868 121.81335 27 ft 25 kts 252°
2026-05-07 15:31 31.14826 121.81182 27 ft 14 kts 253°
2026-05-07 15:32 31.14812 121.81088 27 ft 10 kts 291°
2026-05-07 15:32 31.14956 121.80998 27 ft 28 kts 347°
2026-05-07 15:32 31.15148 121.80941 27 ft 28 kts 338°
2026-05-07 15:32 31.15328 121.80860 27 ft 14 kts 341°
2026-05-07 15:33 31.15372 121.80822 27 ft 4 kts 276°
2026-05-07 15:33 31.15365 121.80787 27 ft 5 kts 254°
2026-05-07 15:33 31.15353 121.80741 27 ft 2 kts 252°
2026-05-07 15:33 31.15353 121.80739 27 ft 0 kts 252°